Location: Byhalia Creek
(34.8270°N, 89.8040°W)
Time: 20:59:49
(UTC+00:00)

USA 32 - Pass Details

Date: 22 April 2026
Orbit: 775 x 779 km, 85.0° (Epoch: 21 May)

Event Time Altitude Azimuth Distance (km) Brightness Sun altitude
Rises 01:51:25 0° 184° (S) 3,243 7.0 -15.1°
Reaches altitude 10° 01:53:45 10° 185° (S) 2,320 6.3 -15.6°
Maximum altitude 01:58:57 83° 272° (W) 788 4.1 -16.5°
Drops below altitude 10° 02:04:13 10° 2° (N) 2,337 6.8 -17.5°
Sets 02:06:35 0° 3° (N) 3,268 7.6 -17.9°
